SCP
0 0 -0 -0 -0 -0 -0 0 0 0 0 -0 -0 -0 -0 0 0 0 0 0 0 0 0 0 -0 -0 0 0 0 0 0 0 0 0 0 0 0 0 0 0 0 0 0 0 0 0 0 0 0 0 0 0 0 0
0 -0 -0 -0 -0 0 -0 -0 -0 0 0 0 -0 -0 0 -0 0 0 0 0 0 0 0 0 0 0 0 0 0 0 0 0 0 0 0 0 0 0 0 0 0 0 0 0 0 0 0 0 0 0 0 0 0 0
0 0 0 0 -0 0 -0 0 0 0 0 0 0 -0 -0 -0 -0 -0 0 0 0 0 0 0 0 0 -0 0 0 0 0 0 0 0 0 0 0 0 0 0 0 0 0 0 0 0 0 0 0 0 0 0 0 0
0 0 0 0 0 0 0 0 0 0 0 0 0 -0 -0 -0 0 0 0 0 0 0 0 0 -0 -0 0 0 0 0 0 0 0 0 0 0 0 0 0 0 0 0 0 0 0 0 0 0 0 0 0 0 0 0
0 0 0 0 0 -0 -0 0 0 0 0 -0 0 0 0 0 -0 0 0 0 0 0 0 0 0 0 0 0 -0 0 0 0 0 0 0 0 0 0 0 0 0 0 0 0 0 0 0 0 0 0 0 0 0 0
0 0 0 0 0 0 -0 -0 -0 -0 0 0 -0 -0 -0 -0 0 0 0 0 0 0 0 0 0 0 0 0 -0 -0 -0 0 0 0 0 0 0 0 0 -0 -0 0 0 0 0 0 0 0 0 0 0 0 0 0
0 0 0 0 0 0 0 0 0 -0 0 -0 -0 -0 -0 -0 0 -0 0 0 0 0 0 0 0 0 0 0 0 -0 -0 -0 -0 -0 -0 -0 0 0 0 0 0 0 -0 -0 0 0 0 0 0 0 -0 -0 0 0
0 0 0 0 0 0 0 0 0 0 -0 -0 -0 -0 -0 -0 -0 -0 0 0 0 0 -0 0 0 0 0 0 0 0 0 -0 -0 -0 -0 -0 -0 0 0 0 0 0 0 -0 0 0 0 -0 -0 -0 0 0 -0 -0
0 0 0 0 0 0 0 0 0 0 -0 -0 -0 -0 0 -0 0 0 -0 0 0 -0 0 0 0 0 0 0 0 0 0 0 -0 0 0 -0 0 0 0 0 0 0 0 -0 -0 -0 -0 -0 -0 -0 -0 0 -0 -0
0 0 0 0 0 0 0 0 0 0 -0 0 0 0 0 0 -0 -0 -0 -0 -0 0 -0 0 0 0 0 0 0 0 0 0 0 0 0 0 0 0 -0 0 0 0 0 -0 -0 0 0 0 0 -0 -0 0 -0 -0
0 0 0 0 0 0 0 0 0 0 0 0 0 0 0 0 0 0 0 -0 0 0 -0 -0 0 0 0 0 0 0 0 0 0 0 0 0 0 0 0 0 0 0 -0 -0 -0 0 0 0 -0 0 0 0 0 0
0 0 0 0 0 0 0 0 0 0 0 0 0 0 0 0 0 0 -0 0 -0 0 -0 -0 0 0 0 0 0 0 0 0 0 0 -0 -0 -0 -0 -0 -0 -0 0 0 0 0 0 -0 -0 -0 0 0 0 0 0
0 0 0 0 0 0 0 0 0 0 0 0 0 0 0 0 0 0 0 -0 -0 0 -0 -0 -0 -0 -0 -0 -0 -0 0 -0 0 0 -0 -0 -0 -0 -0 -0 -0 -0 -0 -0 -0 -0 -0 0 0 0 0 0 0 0
0 0 0 0 0 0 0 0 0 0 0 0 0 0 0 0 0 0 0 0 0 0 0 0 0 0 0 -0 0 -0 0 0 0 0 -0 0 0 0 0 -0 -0 -0 0 0 0 0 0 0 0 0 0 0 0 0
0 0 0 0 0 0 0 0 0 0 0 0 0 0 0 0 0 0 0 0 0 0 0 0 0 0 0 0 0 0 0 0 0 0 0 0 0 0 0 0 0 0 0 0 0 0 0 0 0 0 0 0 0 0
0 0 0 0 0 0 0 0 0 0 0 0 0 0 0 0 0 0 0 0 0 0 0 0 0 0 0 0 0 0 0 0 0 0 0 0 0 0 0 0 0 0 0 0 0 0 0 0 0 0 0 0 0 0
0 0 0 0 0 0 0 0 0 0 0 0 0 0 0 0 0 0 0 0 0 0 0 0 0 0 0 0 0 0 0 0 0 0 0 0 0 0 0 0 0 0 0 0 0 0 0 0 0 0 0 0 0 0
0 0 0 0 0 0 0 0 0 0 0 0 0 0 0 0 0 0 0 0 0 0 0 0 0 0 0 0 0 0 0 0 0 0 -0 -0 -0 -0 -0 -0 -0 0 0 0 0 0 0 0 0 0 0 0 0 0
0 0 0 0 0 0 0 0 0 0 0 0 0 0 0 0 0 0 0 0 0 0 0 0 0 0 0 0 0 0 0 0 0 0 0 -0 -0 -0 -0 0 0 0 0 0 0 0 0 0 0 0 0 0 0 0
0 0 0 0 0 0 0 0 0 0 0 0 0 0 0 0 0 0 0 0 0 0 0 0 0 0 0 0 0 0 0 0 0 0 0 0 0 0 0 0 0 0 0 0 0 0 0 0 0 0 0 0 0 0
0 0 0 0 0 0 0 0 0 0 0 0 0 0 0 0 0 0 0 0 0 0 0 0 0 0 0 0 0 0 0 0 0 0 0 0 0 0 0 0 0 0 0 0 0 0 0 0 0 0 0 0 0 0
0 0 0 0 0 0 0 0 0 0 0 0 0 0 0 0 0 0 0 0 0 0 0 0 0 0 0 0 0 0 0 0 0 0 0 0 0 0 0 0 0 0 0 0 0 0 0 0 0 0 0 0 0 0
0 0 0 0 0 0 0 0 0 0 0 0 0 0 0 0 0 0 0 0 0 0 0 0 0 0 0 0 0 0 0 0 0 0 0 0 0 0 0 0 0 0 0 0 0 0 0 0 0 0 0 0 0 0
0 0 0 0 0 0 0 0 0 0 0 0 0 0 0 0 0 0 0 0 0 0 0 0 0 0 0 0 0 0 0 0 0 0 0 0 0 0 0 0 0 0 0 0 0 0 0 0 0 0 0 0 0 0
0 0 0 0 0 0 0 0 0 0 0 0 0 0 0 0 0 0 0 0 0 0 0 0 0 0 0 0 0 0 0 0 0 0 0 0 0 0 0 0 0 0 0 0 0 0 0 0 0 0 0 0 0 0
0 0 0 0 0 0 0 0 0 0 0 0 0 0 0 0 0 0 0 0 0 0 0 0 0 0 0 0 0 0 0 0 0 0 0 0 0 0 0 0 0 0 0 0 0 0 0 0 0 0 0 0 0 0
0 0 0 0 0 0 0 0 0 0 0 0 0 0 0 0 0 0 0 0 0 0 0 0 0 0 0 0 0 0 0 0 0 0 0 0 0 0 0 0 0 0 0 0 0 0 0 0 0 0 0 0 0 0
0 0 0 0 0 0 0 0 0 0 0 0 0 0 0 0 0 0 0 0 0 0 0 0 0 0 0 0 0 0 0 0 0 0 0 0 0 0 0 0 0 0 0 0 0 0 0 0 0 0 0 0 0 0
0 0 0 0 0 0 0 0 0 0 0 0 0 0 0 0 0 0 0 0 0 0 0 0 0 0 0 0 0 0 0 0 0 0 0 0 0 0 0 0 0 0 0 0 0 0 0 0 0 0 0 0 0 0
0 0 0 0 0 0 0 0 0 0 0 0 0 0 0 0 0 0 0 0 0 0 0 0 0 0 0 0 0 0 0 0 0 0 0 0 0 0 0 0 0 0 0 0 0 0 0 0 0 0 0 0 0 0
0 0 0 0 0 0 0 0 0 0 0 0 0 0 0 0 0 0 0 0 0 0 0 0 0 0 0 0 0 0 0 0 0 0 0 0 0 0 0 0 0 0 0 0 0 0 0 0 0 0 0 0 0 0
0 0 0 0 0 0 0 0 0 0 0 0 0 0 0 0 0 0 0 0 0 0 0 0 0 0 0 0 0 0 0 0 0 0 0 0 0 0 0 0 0 0 0 0 0 0 0 0 0 0 0 0 0 0
0 0 0 0 0 0 0 0 0 0 0 0 0 0 0 0 0 0 0 0 0 0 0 0 0 0 0 0 0 0 0 0 0 0 0 0 0 0 0 0 0 0 0 0 0 0 0 0 0 0 0 0 0 0
Wind_Speed_500mb
41 39 35 30 27 24 22 18 14 12 13 13 11 10 11 12 10 10 8 3 2 13 13 9 6 1 2 7 7 4 5 6 7 8 6 4 5 4 5 4 8 9 10 5 5 8 9 16 8 14 8 23 23 17
39 43 40 36 32 28 28 26 23 21 19 17 14 14 16 18 16 10 4 2 6 12 15 17 14 11 9 3 6 8 7 4 5 8 2 6 4 4 3 3 2 3 8 7 11 10 5 19 2 11 20 25 19 12
33 32 35 40 39 32 31 30 28 28 26 23 19 16 17 8 12 8 5 8 16 26 20 10 10 9 5 3 3 7 6 4 6 8 8 4 7 4 4 7 2 6 9 4 5 6 16 15 19 18 18 16 13 12
35 32 28 30 31 27 25 21 17 17 21 23 20 12 4 10 8 5 5 3 8 16 9 3 8 7 5 6 6 3 6 5 9 7 7 5 6 6 4 5 6 8 14 10 7 15 14 21 36 36 30 26 27 21
39 36 33 28 25 25 24 22 19 16 14 15 16 13 11 11 9 7 5 7 4 4 11 11 14 7 9 9 12 8 6 6 6 6 7 1 2 3 3 1 6 19 13 9 11 23 21 7 15 28 34 36 31 23
40 37 34 31 25 20 21 21 16 12 13 14 15 16 15 15 11 8 5 9 8 11 11 6 6 4 10 13 11 10 10 5 6 7 5 5 2 2 3 6 23 44 46 50 15 14 30 13 19 21 18 15 26 34
44 40 36 31 25 24 23 19 14 12 13 15 18 16 16 14 16 8 4 12 18 9 5 11 5 4 10 7 9 9 6 5 5 5 1 3 5 1 4 9 22 38 45 57 47 38 28 34 32 28 32 30 28 28
46 43 40 33 30 27 19 18 16 14 13 16 18 13 13 12 12 8 8 18 20 5 5 7 5 5 15 6 6 5 6 7 5 6 5 2 5 6 10 26 24 21 30 42 49 51 49 33 28 32 29 28 29 28
50 47 43 39 36 28 20 17 15 19 20 22 14 15 14 11 10 8 13 23 11 3 8 8 9 7 14 7 5 5 3 3 2 2 4 3 4 12 19 22 21 24 26 15 28 36 34 36 37 34 32 34 37 34
55 51 47 43 38 30 23 25 22 29 30 22 17 6 7 11 18 23 9 9 7 3 5 8 11 5 11 9 4 4 1 2 1 3 7 4 7 52 58 52 38 16 13 25 19 17 16 16 15 15 21 20 25 27
60 53 49 47 41 36 32 34 29 29 25 18 8 5 20 24 9 5 5 4 2 5 4 9 7 10 10 6 5 3 3 4 4 7 5 5 7 14 12 10 3 27 46 43 34 30 30 29 30 29 28 28 28 27
63 58 53 50 46 41 36 38 35 27 12 12 10 21 15 6 4 9 2 5 3 8 10 11 11 8 11 8 9 3 6 4 5 6 6 6 9 13 11 3 12 15 13 11 16 17 19 20 18 20 22 23 27 31
67 62 56 53 49 45 39 36 35 27 15 17 6 8 7 2 10 9 9 7 3 18 20 17 8 9 9 6 12 6 7 7 2 5 7 10 20 27 12 5 8 11 13 12 8 6 8 11 16 19 21 24 27 31
68 65 60 56 52 47 42 37 34 33 15 7 8 2 7 3 8 9 9 8 9 11 40 30 16 7 7 7 4 8 3 3 6 3 11 7 12 12 5 12 13 11 11 12 13 16 18 21 24 28 32 34 39 42
70 67 62 56 51 49 45 35 27 34 9 6 6 7 7 6 3 12 11 14 15 37 44 20 14 4 5 8 5 7 7 6 11 9 7 6 12 16 20 15 9 7 11 15 16 18 21 27 33 38 44 49 56 57
72 63 63 58 54 50 47 37 27 17 6 8 9 3 6 4 3 13 21 15 34 51 22 8 8 7 1 8 6 12 11 11 8 7 9 11 23 25 27 30 29 25 23 23 22 30 43 53 60 69 69 63 60 59
78 58 73 66 57 54 48 37 19 9 9 8 8 16 18 3 7 12 25 25 53 32 4 8 7 9 10 4 4 9 10 8 12 14 13 7 15 29 26 17 13 15 27 46 59 64 66 68 65 66 63 57 57 55
87 64 75 72 69 62 52 28 10 9 11 17 9 15 28 9 12 22 21 45 40 19 15 7 18 6 9 8 7 9 32 21 20 20 17 16 28 21 17 21 42 61 65 61 58 61 66 67 68 68 64 63 63 59
83 69 78 86 83 57 20 23 12 9 18 7 14 12 17 14 20 19 26 60 25 20 6 11 5 7 8 20 26 33 33 35 37 36 40 31 27 42 64 67 60 51 51 55 58 61 61 60 64 66 66 63 59 51
66 66 85 87 84 23 16 14 21 10 13 16 17 24 12 10 25 24 29 55 24 10 8 6 11 21 31 40 32 39 43 43 35 38 56 69 72 66 59 60 62 60 64 64 64 64 63 63 62 60 59 57 52 43
73 76 78 85 62 19 14 18 19 14 10 15 19 22 10 16 16 23 26 46 19 12 15 34 53 67 65 66 67 65 62 60 64 65 69 65 64 69 70 67 63 61 59 57 55 56 53 51 49 51 50 48 43 38
70 92 74 78 31 22 18 24 13 22 15 12 27 17 9 11 12 18 28 19 18 33 40 57 74 79 79 83 75 66 50 55 63 64 65 69 70 64 58 53 48 49 50 48 43 46 48 46 45 40 35 31 30 29
99 85 45 32 14 27 13 39 15 21 8 19 21 8 4 8 13 28 14 19 28 67 72 80 86 86 87 87 86 81 75 72 71 67 58 52 50 45 41 38 37 38 36 37 42 48 48 43 37 32 27 25 23 23
66 57 21 30 28 16 26 11 14 15 12 8 7 6 5 12 20 8 8 14 43 53 65 74 75 76 78 77 74 65 58 51 45 45 46 45 43 36 32 29 26 26 31 37 38 39 43 42 34 27 21 18 20 23
24 21 20 14 24 15 10 9 7 5 7 7 9 5 6 15 6 7 7 14 40 63 65 61 55 51 52 52 42 41 42 39 41 47 39 40 33 29 28 25 19 23 31 35 37 34 31 34 30 25 25 23 23 26
12 19 25 24 16 14 15 14 14 13 9 8 6 13 11 5 5 12 9 29 49 46 42 40 39 36 33 36 37 36 37 35 36 33 32 29 25 30 31 30 33 28 33 35 37 37 29 28 29 29 31 28 29 31
16 13 22 18 26 32 13 13 17 9 12 14 11 12 9 12 14 11 16 27 31 29 29 26 25 27 26 24 29 33 35 33 28 27 28 30 31 34 35 34 34 34 33 38 40 44 36 30 31 33 36 36 35 36
13 24 15 29 15 21 13 9 13 16 11 23 29 13 22 21 12 4 6 10 17 20 23 25 26 28 29 30 31 31 31 32 32 34 31 27 26 29 33 34 38 40 41 41 42 45 43 38 37 38 40 41 39 39
9 16 37 8 8 13 20 14 16 21 41 44 17 10 12 10 7 4 2 5 8 12 16 18 20 22 24 27 30 35 38 40 41 41 40 39 39 37 39 44 46 46 46 45 43 44 43 43 42 40 38 39 37 38
11 3 4 13 13 10 10 16 22 39 37 27 22 21 18 15 12 5 3 5 9 11 15 20 25 30 33 35 36 31 38 42 45 44 48 51 54 54 53 53 51 49 49 49 46 42 41 40 41 39 37 38 41 42
14 9 2 10 8 10 15 22 28 32 27 16 16 16 21 21 19 20 21 16 14 15 18 20 23 30 35 38 42 46 40 34 33 40 47 55 58 58 56 55 53 51 47 43 41 37 31 27 27 30 36 40 42 42
21 14 5 6 7 16 13 8 10 12 12 12 14 13 13 11 10 14 28 28 22 22 26 30 34 33 33 35 36 38 44 47 48 47 47 49 49 48 47 45 44 42 39 37 34 30 28 27 27 32 36 38 40 42
8 18 19 10 8 8 16 10 11 11 20 12 15 14 13 11 10 21 23 35 36 35 37 37 37 38 38 35 36 40 43 44 46 47 49 48 47 44 42 39 38 34 33 30 25 23 25 27 28 29 34 38 41 44
Wind_Direction_500mb
209 210 210 210 210 209 212 215 220 227 231 234 230 238 251 269 297 335 344 332 219 102 117 150 184 221 340 349 130 130 47 1 51 61 104 231 113 206 81 201 174 157 129 159 98 69 289 178 119 161 179 136 148 146
212 216 216 216 215 212 219 224 230 237 241 244 248 254 260 261 258 262 294 30 77 98 119 114 94 80 93 97 349 36 116 64 66 93 104 118 90 53 110 217 52 331 164 183 179 209 254 197 59 156 157 159 167 161
203 208 219 217 219 219 227 231 235 240 242 243 250 263 282 243 208 224 186 123 111 104 112 111 98 115 123 147 100 8 43 54 55 49 125 112 89 108 140 251 163 235 183 150 88 263 235 220 216 195 199 210 215 254
201 203 202 194 195 196 207 209 210 224 233 233 238 248 194 156 173 185 167 167 121 118 109 114 166 141 129 140 123 106 102 124 120 77 77 112 119 196 220 184 180 203 148 176 272 274 295 256 235 237 244 245 256 256
199 206 203 198 201 201 204 217 221 214 211 211 215 205 179 175 187 195 226 204 205 167 127 128 119 125 123 126 126 86 104 85 69 53 59 205 190 86 302 80 238 189 182 167 216 211 194 213 227 242 246 249 255 262
200 204 200 199 202 203 213 218 228 222 200 192 198 201 198 194 195 200 215 213 185 150 127 119 103 65 112 121 135 136 135 109 44 18 6 351 351 21 46 256 254 225 216 221 211 205 212 249 214 199 192 229 273 272
199 202 198 195 188 204 221 211 201 202 200 197 198 188 201 201 201 207 207 161 167 152 134 109 97 142 164 127 119 127 130 116 110 117 157 241 243 224 186 239 263 224 232 229 237 245 237 229 227 243 261 267 266 256
197 198 196 190 184 208 211 198 186 188 186 186 199 186 193 197 196 215 206 163 158 140 113 108 105 125 162 164 133 145 137 153 96 132 160 231 257 218 253 230 212 213 222 228 229 233 238 246 254 255 253 265 264 259
195 195 191 185 190 198 205 172 187 183 181 179 175 141 140 159 166 175 168 164 163 143 118 101 133 184 158 137 124 142 149 60 119 133 111 216 236 230 232 246 240 222 205 194 220 226 235 249 262 263 265 264 262 260
193 193 190 189 189 184 173 152 149 143 157 166 149 143 120 135 137 131 120 159 168 143 101 93 125 114 157 159 117 115 129 151 214 263 319 106 260 263 268 267 266 245 217 224 227 227 241 267 273 265 268 273 268 259
192 191 189 190 188 182 172 169 172 170 156 159 154 112 132 141 138 123 114 83 14 42 85 115 133 143 170 125 140 117 145 40 72 274 106 315 278 254 352 14 301 231 235 240 250 258 264 272 277 277 275 274 271 271
190 192 188 188 186 182 180 174 197 181 178 164 140 124 141 139 100 88 277 341 72 213 147 136 132 124 142 138 113 65 127 33 231 339 69 282 253 297 318 20 101 110 126 182 220 240 248 258 269 276 281 281 279 274
189 189 185 185 186 184 182 183 192 196 165 149 160 147 142 65 41 136 205 288 303 175 169 154 139 139 126 131 82 86 86 208 329 46 232 233 272 306 287 207 161 148 144 146 166 202 237 260 265 275 281 280 279 278
189 185 184 185 187 183 182 191 181 176 186 213 178 178 149 285 247 186 184 183 154 155 156 145 118 128 121 77 126 89 247 57 39 1 238 252 325 353 248 221 218 221 241 261 272 268 272 280 283 282 283 282 282 284
186 183 184 187 182 179 184 187 181 174 202 211 196 221 204 199 167 166 155 138 147 152 150 127 97 134 44 94 56 108 41 260 206 231 234 309 5 56 72 65 39 354 317 309 302 305 316 320 319 315 311 304 296 287
182 180 187 180 178 175 183 186 178 182 225 211 221 123 159 139 194 178 186 161 154 157 155 132 113 69 344 126 93 209 128 227 249 223 206 96 79 52 23 5 354 347 339 333 327 321 318 318 314 310 304 296 293 288
177 181 183 176 174 174 181 177 177 215 225 217 230 209 207 288 138 164 172 165 160 164 181 128 104 191 120 54 267 192 206 221 230 207 165 125 11 332 322 328 324 313 312 312 310 306 302 301 298 296 295 296 293 291
183 182 177 170 169 172 175 176 207 220 235 224 220 202 193 195 162 158 166 164 162 195 173 201 139 139 187 187 241 229 233 233 218 223 253 284 294 288 297 303 308 307 305 304 303 301 300 297 293 293 296 297 295 295
184 176 174 174 175 162 157 184 208 228 216 211 215 196 180 187 192 176 172 175 171 178 186 166 110 194 223 219 234 253 258 267 280 289 295 306 309 310 312 311 310 307 308 303 298 293 293 292 292 293 296 295 295 294
179 175 177 177 176 161 157 174 188 224 200 198 197 184 186 178 175 180 174 183 175 181 235 219 220 220 220 240 257 273 282 291 294 296 295 296 302 308 309 310 307 306 303 302 299 298 297 294 292 294 290 288 290 292
172 174 179 178 178 174 186 168 180 194 191 178 179 171 173 170 174 176 179 182 186 224 237 237 253 264 268 272 274 276 277 281 288 292 293 299 306 306 307 306 305 301 298 300 302 302 302 301 299 295 293 288 287 281
164 171 169 179 186 192 210 186 173 170 161 145 156 168 166 163 167 173 169 181 225 239 234 251 265 274 281 283 290 294 300 301 302 299 298 301 302 302 303 306 302 301 300 304 308 306 309 309 305 300 293 285 275 262
165 165 171 174 170 184 189 173 155 162 132 171 150 126 186 181 170 158 204 222 234 244 251 259 268 271 272 276 279 285 294 299 299 301 301 299 298 303 302 301 302 304 312 320 318 321 318 315 311 303 293 280 261 243
166 163 162 180 189 166 151 151 133 122 113 140 155 162 211 165 163 186 249 235 240 253 259 263 264 267 275 281 287 295 297 298 298 300 300 300 304 300 302 302 301 311 313 311 313 313 312 312 308 299 284 260 244 240
151 171 179 191 174 128 111 125 114 119 140 176 152 171 183 163 163 219 237 263 251 254 256 263 273 280 283 287 291 293 294 294 297 297 303 307 304 300 301 294 296 307 301 301 299 295 297 295 289 278 265 256 248 236
179 186 190 172 156 158 160 136 166 160 137 147 186 124 147 142 157 239 218 240 247 258 267 272 276 273 271 280 285 284 287 290 289 292 298 292 296 295 288 283 282 300 295 289 292 287 279 270 265 262 259 252 240 230
174 182 180 170 155 133 98 108 138 137 164 171 165 163 157 177 223 235 237 242 258 267 278 283 283 283 289 283 283 292 295 291 297 304 300 300 297 297 293 292 296 300 301 299 295 290 283 267 258 263 259 247 237 230
169 172 164 160 140 166 134 146 152 180 164 152 135 174 179 195 217 238 211 245 256 262 269 276 282 287 291 296 302 304 301 302 310 313 314 310 311 305 304 304 303 303 303 301 293 283 280 273 263 253 252 248 238 222
139 144 145 146 129 174 178 163 187 186 170 168 172 174 156 129 123 143 171 260 267 269 272 275 278 287 295 300 302 304 307 311 315 312 310 307 304 300 297 298 298 298 297 296 292 286 277 269 259 250 246 240 226 213
11 45 186 148 152 195 175 188 171 173 174 167 154 129 120 106 80 84 6 313 303 306 307 307 306 305 305 303 298 300 307 310 311 310 310 307 305 304 305 305 304 303 302 300 297 291 282 272 263 248 229 215 214 211
3 9 11 43 76 55 109 138 139 148 146 119 116 122 119 130 114 68 44 19 352 331 319 314 317 318 317 315 314 312 312 310 306 303 301 300 301 302 302 301 302 301 299 299 293 288 279 269 260 241 227 223 214 206
9 9 357 92 85 71 122 94 89 75 71 75 63 76 102 99 78 38 14 8 360 354 351 342 333 328 324 318 316 312 310 309 309 307 305 302 301 301 302 301 303 302 301 298 288 277 263 252 244 238 232 220 209 199
17 20 36 49 55 52 30 74 63 77 53 63 53 55 58 73 88 29 17 11 8 360 352 345 337 330 325 320 314 313 311 310 310 311 310 309 310 310 307 304 303 295 295 291 277 262 251 245 244 236 223 212 200 187
Wind_Speed_850mb
41 39 35 30 27 24 22 18 14 12 13 13 11 10 11 12 10 10 8 3 2 13 13 9 6 1 2 7 7 4 5 6 7 8 6 4 5 4 5 4 8 9 10 5 5 8 9 16 8 14 8 23 23 17
39 43 40 36 32 28 28 26 23 21 19 17 14 14 16 18 16 10 4 2 6 12 15 17 14 11 9 3 6 8 7 4 5 8 2 6 4 4 3 3 2 3 8 7 11 10 5 19 2 11 20 25 19 12
33 32 35 40 39 32 31 30 28 28 26 23 19 16 17 8 12 8 5 8 16 26 20 10 10 9 5 3 3 7 6 4 6 8 8 4 7 4 4 7 2 6 9 4 5 6 16 15 19 18 18 16 13 12
35 32 28 30 31 27 25 21 17 17 21 23 20 12 4 10 8 5 5 3 8 16 9 3 8 7 5 6 6 3 6 5 9 7 7 5 6 6 4 5 6 8 14 10 7 15 14 21 36 36 30 26 27 21
39 36 33 28 25 25 24 22 19 16 14 15 16 13 11 11 9 7 5 7 4 4 11 11 14 7 9 9 12 8 6 6 6 6 7 1 2 3 3 1 6 19 13 9 11 23 21 7 15 28 34 36 31 23
40 37 34 31 25 20 21 21 16 12 13 14 15 16 15 15 11 8 5 9 8 11 11 6 6 4 10 13 11 10 10 5 6 7 5 5 2 2 3 6 23 44 46 50 15 14 30 13 19 21 18 15 26 34
44 40 36 31 25 24 23 19 14 12 13 15 18 16 16 14 16 8 4 12 18 9 5 11 5 4 10 7 9 9 6 5 5 5 1 3 5 1 4 9 22 38 45 57 47 38 28 34 32 28 32 30 28 28
46 43 40 33 30 27 19 18 16 14 13 16 18 13 13 12 12 8 8 18 20 5 5 7 5 5 15 6 6 5 6 7 5 6 5 2 5 6 10 26 24 21 30 42 49 51 49 33 28 32 29 28 29 28
50 47 43 39 36 28 20 17 15 19 20 22 14 15 14 11 10 8 13 23 11 3 8 8 9 7 14 7 5 5 3 3 2 2 4 3 4 12 19 22 21 24 26 15 28 36 34 36 37 34 32 34 37 34
55 51 47 43 38 30 23 25 22 29 30 22 17 6 7 11 18 23 9 9 7 3 5 8 11 5 11 9 4 4 1 2 1 3 7 4 7 52 58 52 38 16 13 25 19 17 16 16 15 15 21 20 25 27
60 53 49 47 41 36 32 34 29 29 25 18 8 5 20 24 9 5 5 4 2 5 4 9 7 10 10 6 5 3 3 4 4 7 5 5 7 14 12 10 3 27 46 43 34 30 30 29 30 29 28 28 28 27
63 58 53 50 46 41 36 38 35 27 12 12 10 21 15 6 4 9 2 5 3 8 10 11 11 8 11 8 9 3 6 4 5 6 6 6 9 13 11 3 12 15 13 11 16 17 19 20 18 20 22 23 27 31
67 62 56 53 49 45 39 36 35 27 15 17 6 8 7 2 10 9 9 7 3 18 20 17 8 9 9 6 12 6 7 7 2 5 7 10 20 27 12 5 8 11 13 12 8 6 8 11 16 19 21 24 27 31
68 65 60 56 52 47 42 37 34 33 15 7 8 2 7 3 8 9 9 8 9 11 40 30 16 7 7 7 4 8 3 3 6 3 11 7 12 12 5 12 13 11 11 12 13 16 18 21 24 28 32 34 39 42
70 67 62 56 51 49 45 35 27 34 9 6 6 7 7 6 3 12 11 14 15 37 44 20 14 4 5 8 5 7 7 6 11 9 7 6 12 16 20 15 9 7 11 15 16 18 21 27 33 38 44 49 56 57
72 63 63 58 54 50 47 37 27 17 6 8 9 3 6 4 3 13 21 15 34 51 22 8 8 7 1 8 6 12 11 11 8 7 9 11 23 25 27 30 29 25 23 23 22 30 43 53 60 69 69 63 60 59
78 58 73 66 57 54 48 37 19 9 9 8 8 16 18 3 7 12 25 25 53 32 4 8 7 9 10 4 4 9 10 8 12 14 13 7 15 29 26 17 13 15 27 46 59 64 66 68 65 66 63 57 57 55
87 64 75 72 69 62 52 28 10 9 11 17 9 15 28 9 12 22 21 45 40 19 15 7 18 6 9 8 7 9 32 21 20 20 17 16 28 21 17 21 42 61 65 61 58 61 66 67 68 68 64 63 63 59
83 69 78 86 83 57 20 23 12 9 18 7 14 12 17 14 20 19 26 60 25 20 6 11 5 7 8 20 26 33 33 35 37 36 40 31 27 42 64 67 60 51 51 55 58 61 61 60 64 66 66 63 59 51
66 66 85 87 84 23 16 14 21 10 13 16 17 24 12 10 25 24 29 55 24 10 8 6 11 21 31 40 32 39 43 43 35 38 56 69 72 66 59 60 62 60 64 64 64 64 63 63 62 60 59 57 52 43
73 76 78 85 62 19 14 18 19 14 10 15 19 22 10 16 16 23 26 46 19 12 15 34 53 67 65 66 67 65 62 60 64 65 69 65 64 69 70 67 63 61 59 57 55 56 53 51 49 51 50 48 43 38
70 92 74 78 31 22 18 24 13 22 15 12 27 17 9 11 12 18 28 19 18 33 40 57 74 79 79 83 75 66 50 55 63 64 65 69 70 64 58 53 48 49 50 48 43 46 48 46 45 40 35 31 30 29
99 85 45 32 14 27 13 39 15 21 8 19 21 8 4 8 13 28 14 19 28 67 72 80 86 86 87 87 86 81 75 72 71 67 58 52 50 45 41 38 37 38 36 37 42 48 48 43 37 32 27 25 23 23
66 57 21 30 28 16 26 11 14 15 12 8 7 6 5 12 20 8 8 14 43 53 65 74 75 76 78 77 74 65 58 51 45 45 46 45 43 36 32 29 26 26 31 37 38 39 43 42 34 27 21 18 20 23
24 21 20 14 24 15 10 9 7 5 7 7 9 5 6 15 6 7 7 14 40 63 65 61 55 51 52 52 42 41 42 39 41 47 39 40 33 29 28 25 19 23 31 35 37 34 31 34 30 25 25 23 23 26
12 19 25 24 16 14 15 14 14 13 9 8 6 13 11 5 5 12 9 29 49 46 42 40 39 36 33 36 37 36 37 35 36 33 32 29 25 30 31 30 33 28 33 35 37 37 29 28 29 29 31 28 29 31
16 13 22 18 26 32 13 13 17 9 12 14 11 12 9 12 14 11 16 27 31 29 29 26 25 27 26 24 29 33 35 33 28 27 28 30 31 34 35 34 34 34 33 38 40 44 36 30 31 33 36 36 35 36
13 24 15 29 15 21 13 9 13 16 11 23 29 13 22 21 12 4 6 10 17 20 23 25 26 28 29 30 31 31 31 32 32 34 31 27 26 29 33 34 38 40 41 41 42 45 43 38 37 38 40 41 39 39
9 16 37 8 8 13 20 14 16 21 41 44 17 10 12 10 7 4 2 5 8 12 16 18 20 22 24 27 30 35 38 40 41 41 40 39 39 37 39 44 46 46 46 45 43 44 43 43 42 40 38 39 37 38
11 3 4 13 13 10 10 16 22 39 37 27 22 21 18 15 12 5 3 5 9 11 15 20 25 30 33 35 36 31 38 42 45 44 48 51 54 54 53 53 51 49 49 49 46 42 41 40 41 39 37 38 41 42
14 9 2 10 8 10 15 22 28 32 27 16 16 16 21 21 19 20 21 16 14 15 18 20 23 30 35 38 42 46 40 34 33 40 47 55 58 58 56 55 53 51 47 43 41 37 31 27 27 30 36 40 42 42
21 14 5 6 7 16 13 8 10 12 12 12 14 13 13 11 10 14 28 28 22 22 26 30 34 33 33 35 36 38 44 47 48 47 47 49 49 48 47 45 44 42 39 37 34 30 28 27 27 32 36 38 40 42
8 18 19 10 8 8 16 10 11 11 20 12 15 14 13 11 10 21 23 35 36 35 37 37 37 38 38 35 36 40 43 44 46 47 49 48 47 44 42 39 38 34 33 30 25 23 25 27 28 29 34 38 41 44
Wind_Direction_850mb
209 210 210 210 210 209 212 215 220 227 231 234 230 238 251 269 297 335 344 332 219 102 117 150 184 221 340 349 130 130 47 1 51 61 104 231 113 206 81 201 174 157 129 159 98 69 289 178 119 161 179 136 148 146
212 216 216 216 215 212 219 224 230 237 241 244 248 254 260 261 258 262 294 30 77 98 119 114 94 80 93 97 349 36 116 64 66 93 104 118 90 53 110 217 52 331 164 183 179 209 254 197 59 156 157 159 167 161
203 208 219 217 219 219 227 231 235 240 242 243 250 263 282 243 208 224 186 123 111 104 112 111 98 115 123 147 100 8 43 54 55 49 125 112 89 108 140 251 163 235 183 150 88 263 235 220 216 195 199 210 215 254
201 203 202 194 195 196 207 209 210 224 233 233 238 248 194 156 173 185 167 167 121 118 109 114 166 141 129 140 123 106 102 124 120 77 77 112 119 196 220 184 180 203 148 176 272 274 295 256 235 237 244 245 256 256
199 206 203 198 201 201 204 217 221 214 211 211 215 205 179 175 187 195 226 204 205 167 127 128 119 125 123 126 126 86 104 85 69 53 59 205 190 86 302 80 238 189 182 167 216 211 194 213 227 242 246 249 255 262
200 204 200 199 202 203 213 218 228 222 200 192 198 201 198 194 195 200 215 213 185 150 127 119 103 65 112 121 135 136 135 109 44 18 6 351 351 21 46 256 254 225 216 221 211 205 212 249 214 199 192 229 273 272
199 202 198 195 188 204 221 211 201 202 200 197 198 188 201 201 201 207 207 161 167 152 134 109 97 142 164 127 119 127 130 116 110 117 157 241 243 224 186 239 263 224 232 229 237 245 237 229 227 243 261 267 266 256
197 198 196 190 184 208 211 198 186 188 186 186 199 186 193 197 196 215 206 163 158 140 113 108 105 125 162 164 133 145 137 153 96 132 160 231 257 218 253 230 212 213 222 228 229 233 238 246 254 255 253 265 264 259
195 195 191 185 190 198 205 172 187 183 181 179 175 141 140 159 166 175 168 164 163 143 118 101 133 184 158 137 124 142 149 60 119 133 111 216 236 230 232 246 240 222 205 194 220 226 235 249 262 263 265 264 262 260
193 193 190 189 189 184 173 152 149 143 157 166 149 143 120 135 137 131 120 159 168 143 101 93 125 114 157 159 117 115 129 151 214 263 319 106 260 263 268 267 266 245 217 224 227 227 241 267 273 265 268 273 268 259
192 191 189 190 188 182 172 169 172 170 156 159 154 112 132 141 138 123 114 83 14 42 85 115 133 143 170 125 140 117 145 40 72 274 106 315 278 254 352 14 301 231 235 240 250 258 264 272 277 277 275 274 271 271
190 192 188 188 186 182 180 174 197 181 178 164 140 124 141 139 100 88 277 341 72 213 147 136 132 124 142 138 113 65 127 33 231 339 69 282 253 297 318 20 101 110 126 182 220 240 248 258 269 276 281 281 279 274
189 189 185 185 186 184 182 183 192 196 165 149 160 147 142 65 41 136 205 288 303 175 169 154 139 139 126 131 82 86 86 208 329 46 232 233 272 306 287 207 161 148 144 146 166 202 237 260 265 275 281 280 279 278
189 185 184 185 187 183 182 191 181 176 186 213 178 178 149 285 247 186 184 183 154 155 156 145 118 128 121 77 126 89 247 57 39 1 238 252 325 353 248 221 218 221 241 261 272 268 272 280 283 282 283 282 282 284
186 183 184 187 182 179 184 187 181 174 202 211 196 221 204 199 167 166 155 138 147 152 150 127 97 134 44 94 56 108 41 260 206 231 234 309 5 56 72 65 39 354 317 309 302 305 316 320 319 315 311 304 296 287
182 180 187 180 178 175 183 186 178 182 225 211 221 123 159 139 194 178 186 161 154 157 155 132 113 69 344 126 93 209 128 227 249 223 206 96 79 52 23 5 354 347 339 333 327 321 318 318 314 310 304 296 293 288
177 181 183 176 174 174 181 177 177 215 225 217 230 209 207 288 138 164 172 165 160 164 181 128 104 191 120 54 267 192 206 221 230 207 165 125 11 332 322 328 324 313 312 312 310 306 302 301 298 296 295 296 293 291
183 182 177 170 169 172 175 176 207 220 235 224 220 202 193 195 162 158 166 164 162 195 173 201 139 139 187 187 241 229 233 233 218 223 253 284 294 288 297 303 308 307 305 304 303 301 300 297 293 293 296 297 295 295
184 176 174 174 175 162 157 184 208 228 216 211 215 196 180 187 192 176 172 175 171 178 186 166 110 194 223 219 234 253 258 267 280 289 295 306 309 310 312 311 310 307 308 303 298 293 293 292 292 293 296 295 295 294
179 175 177 177 176 161 157 174 188 224 200 198 197 184 186 178 175 180 174 183 175 181 235 219 220 220 220 240 257 273 282 291 294 296 295 296 302 308 309 310 307 306 303 302 299 298 297 294 292 294 290 288 290 292
172 174 179 178 178 174 186 168 180 194 191 178 179 171 173 170 174 176 179 182 186 224 237 237 253 264 268 272 274 276 277 281 288 292 293 299 306 306 307 306 305 301 298 300 302 302 302 301 299 295 293 288 287 281
164 171 169 179 186 192 210 186 173 170 161 145 156 168 166 163 167 173 169 181 225 239 234 251 265 274 281 283 290 294 300 301 302 299 298 301 302 302 303 306 302 301 300 304 308 306 309 309 305 300 293 285 275 262
165 165 171 174 170 184 189 173 155 162 132 171 150 126 186 181 170 158 204 222 234 244 251 259 268 271 272 276 279 285 294 299 299 301 301 299 298 303 302 301 302 304 312 320 318 321 318 315 311 303 293 280 261 243
166 163 162 180 189 166 151 151 133 122 113 140 155 162 211 165 163 186 249 235 240 253 259 263 264 267 275 281 287 295 297 298 298 300 300 300 304 300 302 302 301 311 313 311 313 313 312 312 308 299 284 260 244 240
151 171 179 191 174 128 111 125 114 119 140 176 152 171 183 163 163 219 237 263 251 254 256 263 273 280 283 287 291 293 294 294 297 297 303 307 304 300 301 294 296 307 301 301 299 295 297 295 289 278 265 256 248 236
179 186 190 172 156 158 160 136 166 160 137 147 186 124 147 142 157 239 218 240 247 258 267 272 276 273 271 280 285 284 287 290 289 292 298 292 296 295 288 283 282 300 295 289 292 287 279 270 265 262 259 252 240 230
174 182 180 170 155 133 98 108 138 137 164 171 165 163 157 177 223 235 237 242 258 267 278 283 283 283 289 283 283 292 295 291 297 304 300 300 297 297 293 292 296 300 301 299 295 290 283 267 258 263 259 247 237 230
169 172 164 160 140 166 134 146 152 180 164 152 135 174 179 195 217 238 211 245 256 262 269 276 282 287 291 296 302 304 301 302 310 313 314 310 311 305 304 304 303 303 303 301 293 283 280 273 263 253 252 248 238 222
139 144 145 146 129 174 178 163 187 186 170 168 172 174 156 129 123 143 171 260 267 269 272 275 278 287 295 300 302 304 307 311 315 312 310 307 304 300 297 298 298 298 297 296 292 286 277 269 259 250 246 240 226 213
11 45 186 148 152 195 175 188 171 173 174 167 154 129 120 106 80 84 6 313 303 306 307 307 306 305 305 303 298 300 307 310 311 310 310 307 305 304 305 305 304 303 302 300 297 291 282 272 263 248 229 215 214 211
3 9 11 43 76 55 109 138 139 148 146 119 116 122 119 130 114 68 44 19 352 331 319 314 317 318 317 315 314 312 312 310 306 303 301 300 301 302 302 301 302 301 299 299 293 288 279 269 260 241 227 223 214 206
9 9 357 92 85 71 122 94 89 75 71 75 63 76 102 99 78 38 14 8 360 354 351 342 333 328 324 318 316 312 310 309 309 307 305 302 301 301 302 301 303 302 301 298 288 277 263 252 244 238 232 220 209 199
17 20 36 49 55 52 30 74 63 77 53 63 53 55 58 73 88 29 17 11 8 360 352 345 337 330 325 320 314 313 311 310 310 311 310 309 310 310 307 304 303 295 295 291 277 262 251 245 244 236 223 212 200 187